{"data":{"norad_id":68473,"intl_designator":"2026-067BK","name":"VIGORIDE-7","alt_names":[],"object_type":"PAYLOAD","status":"ACTIVE","operator":null,"country":"US","launch_date":"2026-03-30","launch_site_code":"AFWTR","launch_vehicle":null,"mission":null,"orbit_class":"UNKNOWN","rcs_meters":null,"size_class":null,"mass_kg":null,"dimensions":null,"purposes":[],"wikipedia_slug":null,"has_3d_model":false,"image_url":null,"decayed_at":null,"tle_current":{"epoch":"2026-05-25T00:00:02.000160Z","epoch_age_seconds":85607,"freshness":"FRESH","line1":"1 68473U 26067BK  26145.00002315 -.00045459  00000+0 -20428-2 0  9994","line2":"2 68473  97.4517 103.8530 0007432 209.4150 242.0747 15.21282379  5001","mean_motion":15.21282379,"eccentricity":0.0007432,"inclination_deg":97.4517,"raan_deg":103.853,"arg_perigee_deg":209.415,"mean_anomaly_deg":242.0747,"bstar":-0.0020428,"rev_number":500,"period_min":94.65698281121,"perigee_km":496.85816517274,"apogee_km":507.08475839033,"semimajor_km":6880.1084617815,"source":"CELESTRAK","updated_at":"2026-05-25T13:38:07.849381Z"}}}